Regional Weather Roundup
Issued by NWS Glasgow, MT

Home | Current Version | Previous Version | Text Only | Print | Product List | Glossary On
Versions: 1 2 3 4 5 6 7 8 9 10 11 12 13 14 15 16 17 18 19 20 21 22 23 24 25 26 27 28
000
ASUS45 KGGW 251015
RWRGGW
HOURLY REGIONAL WEATHER ROUNDUP FOR NORTHEAST MONTANA
NATIONAL WEATHER SERVICE GLASGOW MONTANA
400 AM MDT MON SEP 25 2017

NOTE: "FAIR" INDICATES FEW OR NO CLOUDS BELOW 12,000 FEET WITH NO
SIGNIFICANT WEATHER AND/OR OBSTRUCTIONS TO VISISBILITY.

NORTHEAST MONTANA


CITY           SKY/WX    TMP DP  RH WIND       PRES   REMARKS
GLASGOW        CLOUDY    38  37  97 E8        30.11S
WOLF POINT     PTCLDY    34  31  88 CALM      30.14S
JORDAN           N/A     32  28  85 CALM      30.10S
WINNETT          N/A     40  36  86 S2          N/A
SIDNEY           N/A    N/A N/A N/A MISG        N/A
GLENDIVE       FOG       36  34  93 CALM      30.15R VSB 1/4
MALTA            N/A     43  38  82 NW6         N/A
SCOBEY           N/A     42  34  73 MISG      30.10S

FORT PECK REPORTS


CITY           SKY/WX    TMP DP  RH WIND       PRES   REMARKS
FORT PECK        N/A     46  42  86 SE12        N/A
THE PINES        N/A     47  39  74 S5          N/A

SOUTHEAST MONTANA


CITY           SKY/WX    TMP DP  RH WIND       PRES   REMARKS
BILLINGS       MOCLDY    40  37  89 CALM      30.09S
MILES CITY     FOG       36  34  92 SE5       30.13R VSB 1/4
BAKER          CLOUDY    40  37  89 S5        30.15R
LIVINGSTON     CLOUDY    30  27  88 NW6       30.10S

CENTRAL MONTANA


CITY           SKY/WX    TMP DP  RH WIND       PRES   REMARKS
HAVRE          CLEAR     36  31  82 CALM      30.03S
LEWISTOWN      CLEAR     32  29  88 SE6       30.06F
GREAT FALLS    CLEAR     39  30  70 SW10      30.04S
CUT BANK       CLEAR     34  30  85 CALM      30.01F
HELENA         CLEAR     36  31  82 CALM      30.09S
BUTTE          CLOUDY    29  27  92 SE5       30.12S
BOZEMAN        CLOUDY    31  29  92 SE3       30.12R

WESTERN MONTANA


CITY           SKY/WX    TMP DP  RH WIND       PRES   REMARKS
MISSOULA       CLOUDY    47  41  80 CALM      30.09S
KALISPELL      NOT AVBL

NORTH DAKOTA


CITY           SKY/WX    TMP DP  RH WIND       PRES   REMARKS
WILLISTON      CLOUDY    46  44  93 CALM      30.15R
DICKINSON      CLOUDY    43  41  93 CALM      30.13R
MINOT          CLOUDY    47  44  90 W5        30.12R
BISMARCK       CLOUDY    49  46  90 N3        30.14R

SOUTHERN SASKATCHEWAN


CITY           SKY/WX    TMP DP  RH WIND       PRES   REMARKS
REGINA         CLOUDY    43  36  75 S7        30.11R
MOOSE JAW      CLOUDY    48  39  71 SW12      30.09
ESTEVAN        PTCLDY    39  39 100 N3        30.13R
SWIFT CURRENT    N/A     37  32  81 S13       30.03F





USA.gov is the U.S. government's official web portal to all federal, state and local government web resources and services.